Terminal Aerodrome Forecast
Issued by NWS Omaha/Valley, NE

Home | Current Version | Previous Version | Text Only | Print | Product List | Glossary On
Versions: 1 2 3 4 5 6 7 8 9 10 11 12 13 14 15 16 17 18 19 20 21 22 23 24 25 26 27 28 29 30 31 32 33 34 35 36 37 38 39 40 41 42 43 44 45 46 47 48 49 50
000
FTUS43 KOAX 061120
TAFOFK
TAF
KOFK 061120Z 0612/0712 12010KT 6SM -SHRA BR OVC018
      TEMPO 0612/0615 3SM -SHRA BR OVC010
     FM061800 15015G25KT P6SM OVC050
     FM070100 16015G25KT 6SM -SHRA BR OVC040
      TEMPO 0702/0705 3SM -TSRA BR OVC025CB
     FM070800 18012KT P6SM OVC050=

USA.gov is the U.S. government's official web portal to all federal, state and local government web resources and services.